カタログに戻る

STARLINK-3730

運用中通信VLEO
NORAD 52139·PAYLOAD·🇺🇸 United States

打ち上げ Mar 19, 2022 から Cape Canaveral Space Force Station

Loading…

次のパス (今後24時間)

TLE

最新Source: CelesTrak SupGP

元期: Sep 14, 2026, 21:22 UTC

1 52139C 22029BD  26257.89076389  .00018066  00000+0  53398-3 0  2575
2 52139  53.1562 295.5964 0001262 105.0313  14.7590 15.34369342    15

AllMySatでSTARLINK-3730をリアルタイム追跡

Download on the App Store